Theta_e
299 297 296 295 295 294 292 293 293 291 291 293 290 288 287 287 286 285 285 285 285 285 284 284 283 283 283 282 281 281 281 280 279 279 279 278 278 278 278 277 277 276 276
296 296 295 295 294 294 292 290 290 294 292 289 288 288 287 286 286 285 285 285 285 284 284 283 283 282 282 282 281 280 280 280 279 278 278 278 278 278 277 277 276 276 275
296 295 295 294 294 294 294 295 294 291 290 289 288 287 286 286 285 285 285 285 284 284 283 283 282 282 281 281 280 280 280 279 279 278 278 278 278 278 277 276 276 275 274
295 294 293 294 295 295 296 294 292 291 289 288 287 287 286 285 285 285 284 284 283 283 282 282 281 281 281 280 280 280 279 279 279 279 278 278 278 277 276 276 275 274 273
295 294 295 296 297 295 293 292 291 289 288 288 287 286 285 285 285 284 284 283 283 283 282 282 281 281 281 280 279 280 280 280 279 279 278 278 278 277 276 275 273 273 271
295 294 296 297 296 294 293 291 289 288 288 287 286 286 285 285 285 285 284 283 283 283 282 282 282 282 281 280 279 280 280 280 279 279 278 278 277 276 274 273 272 270 271
294 296 297 296 294 293 291 290 288 288 287 286 286 285 285 285 285 284 284 283 283 283 283 283 283 282 281 280 279 278 279 278 279 279 278 277 275 274 272 271 270 269 269
293 294 294 293 291 290 289 288 288 287 287 286 286 286 285 285 285 284 284 283 283 284 283 283 282 282 280 279 278 278 278 278 278 278 277 276 274 272 271 269 269 267 265
292 292 292 290 290 289 288 288 287 287 286 286 286 285 285 285 285 285 284 284 284 283 283 282 282 281 280 279 279 279 279 278 278 277 276 275 273 271 269 268 266 265 264
291 291 290 290 289 289 289 288 287 287 287 286 286 286 286 286 285 285 284 284 283 283 283 283 282 281 280 279 279 279 278 278 277 276 275 274 271 269 268 265 264 264 263
290 290 290 290 290 289 288 288 287 287 287 286 286 286 286 286 285 284 284 284 284 284 283 282 281 281 280 279 279 279 278 277 275 274 273 270 269 268 265 264 263 262 262
290 290 290 289 289 289 288 288 287 287 287 287 286 286 285 285 285 285 285 284 283 283 283 282 282 281 279 279 279 277 276 276 274 272 270 269 267 264 263 262 262 261 262
291 290 289 289 289 288 289 288 287 287 286 286 286 286 287 287 286 285 285 283 283 283 283 282 282 280 279 278 278 276 275 274 271 269 268 267 265 264 263 262 262 261 263
290 289 290 289 289 289 289 288 287 287 287 287 287 286 288 287 286 285 284 283 282 282 282 281 280 279 278 277 276 275 274 272 269 268 267 266 264 264 263 261 261 261 260
290 290 289 289 289 289 288 288 288 289 289 288 287 287 286 286 286 284 283 282 282 281 280 280 279 278 277 276 275 274 273 270 268 267 266 264 263 262 262 262 262 260 259
290 289 289 289 289 288 288 288 288 289 288 287 287 287 287 286 284 283 283 282 281 280 278 278 277 277 276 276 275 274 272 270 268 267 265 263 262 261 261 262 261 260 259
290 290 290 289 289 288 288 289 289 288 287 287 287 287 285 285 284 284 283 283 281 281 279 278 278 278 277 276 274 272 271 268 267 266 263 262 261 262 261 261 261 260 260
290 290 290 290 290 290 289 289 289 288 288 287 286 286 285 285 284 284 285 284 283 282 281 280 280 279 277 275 273 272 269 267 266 264 263 262 262 261 261 261 261 260 259
290 290 290 290 290 289 289 289 288 287 286 285 286 286 285 284 283 282 283 283 283 283 281 280 279 278 276 275 273 270 268 267 266 264 263 263 262 262 262 262 262 261 259
290 290 290 289 289 290 289 288 287 286 285 285 286 285 283 282 281 282 281 281 281 281 281 280 279 277 275 273 270 268 268 267 265 263 263 263 263 262 262 262 262 260 260
291 290 290 289 289 289 288 287 287 285 285 286 285 284 282 281 281 281 280 279 279 279 278 278 277 276 274 272 269 268 268 266 264 263 264 263 263 263 263 263 263 262 260
290 289 289 289 290 289 288 287 286 285 285 284 284 283 281 280 281 281 280 279 278 277 276 275 275 274 273 270 269 268 267 265 264 264 264 263 264 264 264 264 264 263 261
290 289 289 289 288 287 286 286 284 284 284 283 282 281 281 281 280 280 280 279 277 276 275 275 274 273 271 269 268 268 266 265 264 264 264 264 264 264 264 264 264 263 262
288 287 287 286 286 286 285 284 284 283 282 282 281 281 281 280 280 280 280 277 276 276 275 274 273 271 269 268 268 267 265 264 264 264 264 264 264 265 265 265 265 264 262
287 286 286 285 284 284 283 283 282 282 282 281 281 280 280 280 280 281 279 276 275 275 274 273 272 270 268 268 267 266 265 264 264 264 264 264 265 265 265 265 267 266 265
285 284 284 283 283 282 282 282 281 281 280 280 280 279 279 280 280 278 276 275 274 273 273 272 271 269 267 267 266 265 265 265 264 264 264 264 265 266 266 266 267 266 265
Wind_Speed
40 38 38 36 38 36 30 29 26 23 20 17 16 16 15 13 13 11 10 8 6 5 3 2 2 2 3 4 4 6 7 8 10 16 18 22 25 26 26 26 24 24 26
38 38 39 41 39 36 30 28 24 20 17 18 18 16 15 14 12 10 8 7 5 4 5 5 4 5 5 5 7 7 9 10 12 15 20 21 27 25 25 23 22 24 27
40 41 42 39 38 34 31 24 20 16 18 20 18 17 15 13 11 9 7 6 7 7 7 7 5 6 7 8 9 10 10 12 13 16 20 23 26 23 22 20 21 25 25
40 36 36 36 36 31 27 24 23 23 22 20 18 16 14 12 11 9 9 9 10 8 8 7 7 8 8 10 11 11 12 13 15 18 20 20 20 20 19 19 22 23 29
39 35 36 36 32 29 26 24 23 22 20 18 16 15 13 13 12 12 12 11 10 9 9 9 9 8 10 11 13 14 14 15 16 17 16 17 17 18 17 19 23 29 31
35 36 37 34 31 27 24 25 23 21 19 18 17 14 14 14 14 13 12 12 11 10 10 10 10 11 11 12 12 12 13 15 17 16 16 12 18 15 16 19 24 24 12
34 36 34 33 31 28 26 24 22 21 20 18 15 15 15 14 14 13 13 12 12 12 13 13 14 13 12 13 13 14 14 15 13 14 16 18 12 15 19 21 21 19 22
32 34 32 29 28 27 25 24 23 21 18 16 16 16 15 14 13 12 12 12 15 15 16 15 15 15 14 13 13 13 14 14 12 11 10 10 12 15 19 19 21 27 24
29 30 29 29 27 26 25 25 22 20 18 18 17 15 14 13 13 13 13 14 17 18 16 15 16 17 15 12 12 14 15 14 12 11 13 14 18 22 17 21 23 20 17
27 26 26 27 26 27 26 25 22 20 18 16 14 13 12 12 12 13 14 16 18 19 19 19 17 16 15 11 12 13 16 15 13 13 16 20 22 21 17 15 16 16 14
23 23 24 26 27 26 23 22 20 18 15 14 12 11 13 14 14 15 15 16 20 21 23 22 17 13 12 10 11 14 11 8 9 15 19 20 20 18 16 16 14 14 17
22 23 25 27 24 23 21 19 17 14 14 13 14 15 15 14 15 16 17 19 19 22 24 21 16 12 10 9 10 6 8 12 15 17 18 18 17 16 18 17 16 14 16
25 26 23 21 23 22 20 17 16 16 14 13 15 17 16 13 14 16 18 18 17 20 22 21 15 10 8 11 11 12 12 14 15 16 16 16 16 18 19 18 17 17 19
24 24 24 25 23 20 18 17 15 15 16 16 17 16 17 17 16 14 15 16 17 17 17 15 11 11 12 13 11 11 12 14 14 14 15 17 17 18 19 18 21 22 24
23 25 24 22 20 20 19 19 18 17 15 16 16 15 18 19 16 13 11 11 12 13 15 15 15 15 16 14 13 13 14 13 13 14 16 17 17 17 19 19 21 22 22
22 23 22 21 20 21 21 19 18 17 17 16 17 18 16 17 14 11 9 9 9 7 12 16 18 18 17 16 15 14 14 13 14 14 15 14 15 16 19 22 22 22 25
20 20 21 22 22 23 21 20 19 14 13 15 15 15 15 16 16 14 13 14 12 12 18 18 19 19 19 17 15 14 13 12 13 13 13 13 13 15 18 22 23 24 29
19 19 19 21 21 20 20 17 15 15 16 17 14 13 15 17 17 17 17 16 19 20 23 24 23 20 18 16 14 13 12 12 12 13 14 12 12 15 19 22 25 27 30
19 21 19 18 17 16 15 14 16 18 20 19 16 15 15 15 15 17 15 21 22 25 25 24 22 17 16 15 13 12 12 11 12 13 12 11 12 15 20 22 26 29 30
20 19 18 17 15 16 16 18 19 20 20 20 19 18 15 14 16 18 19 21 25 26 24 21 19 17 15 14 12 12 12 12 12 12 11 12 12 15 20 24 26 29 32
19 18 19 18 19 19 18 19 20 20 21 21 22 17 15 17 16 17 18 21 23 24 23 21 19 17 15 14 13 13 13 12 12 11 11 11 13 17 20 24 27 30 33
15 17 19 20 19 20 20 19 20 21 22 22 23 19 15 17 19 18 20 21 20 20 19 18 18 18 15 14 13 12 13 13 11 11 11 11 13 17 21 25 28 31 33
14 17 18 19 19 19 20 21 21 22 23 23 21 20 18 18 19 21 22 21 19 17 17 18 18 17 16 14 13 13 13 11 10 12 12 13 15 17 22 26 29 33 31
15 18 19 20 21 22 22 22 22 22 21 21 20 20 20 20 20 21 22 21 20 19 18 17 17 16 15 14 13 13 12 11 12 11 13 14 16 18 23 26 30 34 33
11 15 19 21 21 21 20 20 20 20 20 20 20 20 19 20 22 23 22 20 20 20 20 18 17 16 15 14 12 12 11 11 11 12 13 15 17 19 23 27 31 35 35
10 12 13 14 16 17 18 18 18 17 17 18 19 19 19 21 23 23 20 19 19 19 19 18 17 15 15 13 12 12 12 11 12 12 13 15 17 20 24 28 32 32 31
Wind_Direction
147 146 145 146 154 149 155 156 157 157 155 157 161 170 173 171 175 172 163 154 149 143 149 184 219 269 279 278 290 285 274 249 244 285 299 312 317 328 327 330 332 327 324
137 140 143 147 150 150 159 153 153 167 158 159 173 179 183 183 185 185 179 177 176 192 215 231 243 262 269 295 290 291 288 283 270 276 298 307 318 326 323 324 321 322 319
138 139 138 148 149 155 154 155 155 163 173 181 186 183 188 191 195 196 202 205 215 221 232 242 256 272 287 285 293 296 292 289 286 287 293 308 313 318 311 316 322 320 317
133 136 139 146 153 152 150 157 169 183 184 187 189 191 197 200 204 211 218 220 230 235 243 258 264 272 289 297 298 291 291 296 301 298 297 302 302 307 313 327 323 323 317
131 137 144 151 151 154 161 173 184 184 186 192 193 197 203 211 216 219 224 229 238 247 255 260 264 280 288 291 290 291 295 299 294 295 294 298 296 315 328 330 322 321 318
137 145 150 150 158 163 172 182 185 186 188 194 199 205 213 219 223 229 237 241 247 252 257 263 278 286 285 281 278 276 276 284 287 296 292 288 302 319 332 331 322 320 323
145 148 152 161 168 174 180 184 188 191 196 198 204 211 220 227 231 234 238 249 257 262 267 275 275 279 280 283 284 275 274 272 279 291 299 299 308 329 329 322 315 305 297
152 155 162 168 177 180 181 185 192 197 201 205 213 219 226 234 239 243 248 255 263 270 268 269 273 281 285 285 279 277 280 286 291 294 284 298 320 326 322 318 308 311 309
161 161 168 178 180 182 187 192 197 199 205 212 220 226 234 243 248 250 254 261 264 267 271 274 275 279 279 279 263 270 283 287 289 272 284 299 314 320 329 316 328 333 327
168 170 178 182 187 189 195 196 199 205 213 217 225 234 245 254 255 261 260 261 266 275 278 279 272 272 274 264 259 275 278 282 277 285 301 315 323 323 323 322 324 327 317
175 179 183 188 194 198 198 201 205 210 216 225 238 249 257 261 262 259 260 263 272 277 276 275 278 273 256 255 269 275 275 265 283 306 314 319 318 321 328 327 321 307 295
181 184 190 195 196 199 202 202 210 216 226 236 251 255 258 264 271 275 274 270 268 265 268 277 280 268 248 261 252 233 256 295 304 307 313 318 322 328 328 324 319 308 301
189 193 193 193 201 205 205 209 216 223 234 243 251 266 278 284 285 280 276 269 261 256 265 272 271 263 239 231 248 266 287 298 305 311 313 317 320 325 323 322 324 324 318
188 190 193 198 202 206 212 219 225 229 234 250 258 269 287 288 283 281 274 270 266 257 253 255 231 232 243 253 257 276 290 298 304 306 310 313 317 321 324 329 327 329 321
193 194 197 202 206 209 217 224 227 241 250 255 265 275 276 284 293 286 282 283 280 265 249 233 223 234 248 251 262 276 285 294 301 303 306 309 315 319 324 330 326 322 316
194 197 201 205 212 216 222 226 238 248 254 261 269 269 274 272 286 289 279 275 276 258 234 232 238 243 242 249 259 267 277 287 290 293 298 304 310 316 321 324 321 319 315
205 205 208 212 215 220 224 232 241 250 254 260 258 262 268 278 280 277 262 255 250 238 235 241 244 244 248 250 255 263 274 280 283 291 295 301 308 315 318 317 318 319 318
217 219 219 222 225 229 234 242 250 256 260 260 257 260 264 265 264 259 256 256 244 238 240 246 251 255 248 246 258 264 269 273 282 288 290 300 310 313 315 314 319 318 317
219 223 228 231 236 241 246 248 254 253 251 255 257 257 262 263 261 260 247 242 244 249 249 249 255 251 249 262 262 260 262 270 280 281 289 301 308 312 313 315 318 317 318
229 233 236 239 240 241 243 248 249 250 252 257 265 269 267 256 254 260 258 251 251 256 258 253 249 252 252 254 252 254 260 272 275 280 290 299 312 310 311 315 315 316 317
232 236 238 236 237 243 251 255 260 258 260 265 268 270 268 263 272 275 270 261 259 259 257 255 254 254 253 248 248 252 261 267 268 275 286 300 306 307 312 312 314 319 320
241 240 238 241 248 252 260 268 266 263 263 264 269 271 268 263 274 278 278 275 271 263 257 253 252 252 249 248 249 252 262 264 267 274 284 295 299 305 311 314 318 322 321
251 249 249 253 257 262 265 264 259 257 258 261 267 271 271 268 270 277 283 280 267 258 247 244 242 241 242 244 247 255 259 266 269 274 285 290 295 306 313 315 318 322 318
260 260 260 259 256 258 260 262 263 264 264 264 266 269 271 273 276 281 283 273 258 245 241 239 235 236 240 241 247 256 259 262 268 277 282 288 296 307 311 314 319 322 315
258 257 257 259 262 262 266 268 268 267 267 268 272 275 281 283 286 287 283 267 253 245 242 238 233 234 238 241 251 257 260 263 271 274 279 285 294 301 307 310 318 323 321
281 278 279 278 276 274 271 272 274 276 276 279 280 280 280 285 290 290 280 262 248 241 239 236 230 231 235 240 248 255 259 264 269 273 276 283 292 299 306 311 319 318 310